TimeMDT,TemperatureF,Dew PointF,Humidity,Sea Level PressureIn,VisibilityMPH,Wind Direction,Wind SpeedMPH,Gust SpeedMPH,PrecipitationIn,Events,Conditions,WindDirDegrees,DateUTC
12:53 AM,26.1,9.0,49,30.06,10.0,NW,5.8,-,N/A,,Clear,310,2013-04-18 06:53:00
1:53 AM,23.0,8.1,53,30.07,10.0,NNW,3.5,-,N/A,,Clear,330,2013-04-18 07:53:00
2:53 AM,24.1,6.1,46,30.09,10.0,WNW,5.8,-,N/A,,Clear,290,2013-04-18 08:53:00
3:53 AM,21.9,6.1,51,30.07,10.0,SW,3.5,-,N/A,,Clear,230,2013-04-18 09:53:00
4:53 AM,21.9,6.1,51,30.09,10.0,Calm,Calm,-,N/A,,Clear,0,2013-04-18 10:53:00
5:53 AM,23.0,8.1,53,30.09,10.0,NNW,4.6,-,N/A,,Clear,330,2013-04-18 11:53:00
6:53 AM,19.9,7.0,57,30.12,10.0,Calm,Calm,-,N/A,,Clear,0,2013-04-18 12:53:00
7:53 AM,27.0,10.0,49,30.13,10.0,ENE,4.6,-,N/A,,Clear,60,2013-04-18 13:53:00
8:53 AM,30.9,10.0,42,30.14,10.0,North,10.4,23.0,N/A,,Clear,350,2013-04-18 14:53:00
9:53 AM,33.1,8.1,35,30.15,10.0,North,16.1,27.6,N/A,,Clear,360,2013-04-18 15:53:00
10:53 AM,35.1,6.1,30,30.15,10.0,North,13.8,24.2,N/A,,Mostly Cloudy,350,2013-04-18 16:53:00
11:53 AM,36.0,5.0,27,30.15,10.0,North,10.4,23.0,N/A,,Mostly Cloudy,360,2013-04-18 17:53:00
12:53 PM,39.0,6.1,26,30.15,10.0,NNW,11.5,25.3,N/A,,Mostly Cloudy,330,2013-04-18 18:53:00
1:53 PM,41.0,5.0,23,30.15,10.0,NW,17.3,26.5,N/A,,Scattered Clouds,320,2013-04-18 19:53:00
2:53 PM,42.1,8.1,25,30.16,10.0,NNW,12.7,26.5,0.00,,Partly Cloudy,330,2013-04-18 20:53:00
3:53 PM,43.0,6.1,22,30.16,10.0,NNW,11.5,20.7,N/A,,Scattered Clouds,330,2013-04-18 21:53:00
4:53 PM,42.1,5.0,22,30.17,10.0,NNE,16.1,26.5,N/A,,Scattered Clouds,20,2013-04-18 22:53:00
5:53 PM,43.0,1.0,17,30.18,10.0,NNW,11.5,25.3,N/A,,Clear,340,2013-04-18 23:53:00
6:53 PM,41.0,-0.0,18,30.21,10.0,NW,16.1,25.3,N/A,,Clear,320,2013-04-19 00:53:00
7:53 PM,36.0,1.9,24,30.23,10.0,North,11.5,18.4,N/A,,Clear,360,2013-04-19 01:53:00
8:53 PM,34.0,3.9,28,30.25,10.0,North,6.9,-,N/A,,Clear,350,2013-04-19 02:53:00
9:53 PM,28.0,3.0,34,30.29,10.0,East,3.5,-,N/A,,Clear,100,2013-04-19 03:53:00
10:53 PM,24.1,3.0,40,30.30,10.0,NE,3.5,-,N/A,,Clear,50,2013-04-19 04:53:00
11:53 PM,21.0,3.9,48,30.32,10.0,ENE,3.5,-,N/A,,Clear,60,2013-04-19 05:53:00